Preview of NWS' New Version of Forecast
This preview is not operational and should not be used for support decisions.

Regional Weather Roundup (RWR)

Issued by National Weather Service (NWS)

                            
000
ASUS43 KBIS 221002
RWRND 

NORTH DAKOTA REGIONAL WEATHER ROUNDUP
NATIONAL WEATHER SERVICE BISMARCK ND
500 AM CDT MON APR 22 2019

NOTE: "FAIR" INDICATES FEW OR NO CLOUDS BELOW 12,000 FEET WITH NO
SIGNIFICANT WEATHER AND/OR OBSTRUCTIONS TO VISIBILITY.


NDZ001>003-009>011-017-221100-
NORTHWEST NORTH DAKOTA
  
CITY           SKY/WX    TMP DP  RH WIND       PRES   REMARKS
WILLISTON      CLEAR     29  23  78 CALM      30.25R                  
MINOT          CLEAR     38  27  64 W9        30.20R                  
MINOT AFB      CLEAR     33  25  73 NW9       30.20R                  
$$
 
NDZ018>021-031>035-040>046-221100-
SOUTHWEST NORTH DAKOTA
  
CITY           SKY/WX    TMP DP  RH WIND       PRES   REMARKS
BISMARCK       MOCLDY    38  33  82 W3        30.18R                  
DICKINSON      CLEAR     31  26  82 W7        30.20R                  
GARRISON         N/A     34  28  79 N9        30.19R                  
HETTINGER ARPT MOCLDY    37  33  85 W5        30.21R                  
$$
 
NDZ004>008-012>016-024-026-027-054-221100-
NORTHEAST NORTH DAKOTA
  
CITY           SKY/WX    TMP DP  RH WIND       PRES   REMARKS
GRAND FORKS    PTCLDY    37  35  92 CALM      30.15R                  
GRND FRKS AFB  PTCLDY    37  34  88 CALM      30.15R                  
DEVILS LAKE    CLEAR     38  32  79 N9        30.17R                  
$$
 
NDZ022-023-025-028>030-036>039-047>053-221100-
SOUTHEAST NORTH DAKOTA
  
CITY           SKY/WX    TMP DP  RH WIND       PRES   REMARKS
FARGO          CLOUDY    47  39  74 NE7       30.13R                  
JAMESTOWN      CLEAR     38  32  79 N7        30.14R                  
$$